Showing default

INTELSAT 39, 44476

Orbit data source: Space-Track

INTELSAT 39, 44476 is a payload satellite owned by Intelsat SA (US) (US) in GEO that was launched on Tue, 06 Aug 2019 UTC via an ARIANE 5ECA+ launch vehicle from the French Guiana (FRGUI). Payloads include a variety of satellites, spacecraft, and rockets equipped with specific instruments for various scientific and technological missions. These include communications satellites like Starlink; space stations such as the ISS; scientific satellites like the Hubble; Earth observation satellites from companies like Planet Labs, Umbra, and HawkEye 360; GPS; miniature CubeSats for education and research; and military/defense satellites.

Not visible in the next 10 days
INTELSAT 39 details
Identifier
44476, 2019-049B
Orbit
GEO
Last TLE update9 hours ago
Origin
Flag of USIntelsat SA (US) (US / ITSO)
ManufacturerMaxar Space Sol
MissionOperational Commercial Communications
Bus & MotorLS-1300, R-4D
Mass6,600 kg wet, ~3,000 kg dry
Launch date (UTC)
2019-08-06 (5 years ago)
Launch vehicle
ARIANE 5ECA+
Launch site
French Guiana (FRGUI)
Object type
Payload
Rocket body
Debris
Shape & HBRBox + 2 Pan, 26.1 m
Radar Cross Section98.259 m², Large (>1 m²)

Expand to show TLE details & history

TLE from 9 hours ago
0 INTELSAT 39
1 44476U 19049B   24361.47028939  .00000062  00000-0  00000-0 0  9994
2 44476   0.0154 347.9354 0000724 149.4481 189.3221  1.00271346 19736
Epoch: 2024-12-26T11:17Z
Definitive object data (Epoch: 2024-12-26T11:17:13.003Z)
Latitude-0.01563°
Longitude61.94294°
Altitude35,789.219 km
Speed3.074 km/s
True Right ascension21h 46m 47s
True Declination0° 00' 56"
Sunlit
Object was in daylight at TLE epoch
Visualization TLE readout
Latitude0.03622°
Longitude-163.63381°
Altitude35,783.71 km
Speed3.075 km/s
Apparent Right ascension06h 49m 50s
Apparent Declination-4° 55' 24"
Sunlit
Object is in daylight
Visualization observer readout
Local Sidereal Time19:36:15
Azimuth19.677° NNE
Elevation-53.476°
Doppler factor1
Orbital elements
Apogee altitude35,790.841 km
Perigee altitude35,784.736 km
Semi-major axis42,165.925 km
Eccentricity0.0000724
Inclination0.0154°
RAAN347.9354°
Arg. of periapsis149.4481°
True anomaly189.32076°
Mean anomaly189.3221°
Eccentric anomaly189.32143°
Mean motion0.25067 °/min
BSTARUnknown
Orbital period1436.16 mins
Loading historical data...
44476 neighbors
Authenticating...
Loading maneuver chart data...
Loading historical data...
Loading historical data...
Loading historical data...
Loading historical data...
Loading historical data...
Loading historical data...
Loading historical data...
Other satellites on launch #49 in the year 2019 (2019-08-06 UTC)

INTELSAT 39 Visibility forecast

Observer location: undefined°, undefined

INTELSAT 39 is not visible in the next 10 days
Span
Click to sort rows by Start time (UTC) header in descending order
Start Az.
Max El. time (UTC)
Max El. Az.
Max El.
End time (UTC)
End Az.
|